FLRK1: Cottonwood Riv, Florence, KS

Data processed at Tue May 21 2019 23:50


All information presented herein is the property of the government of the United States of America and may be revised or deleted at any time without prior notice.
Dissemination of this information without the expressed written consent of the Public Affairs Office, Tulsa District U.S. Army Corps of Engineers is strictly prohibited.
These data are gathered electronically and, as presented, have not undergone any form of quality control. These data are not guaranteed to be valid or correct.
Go to home page.
Go to station list.
Go to home page.

Upstream stations:

Downstream station:
Previous Day
Next Day
Current Day
    
SHEF ID:       FLRK1     COTTONWOOD R NR FLORENCE, KS
STATION TYPE:  
Regulating: Stage =    21.00, Flow =     9037

               PRECIP     STAGE  STAGE(2)  RIV-FLOW  BAT-LOAD
                   in        ft        ft       cfs      volt
              Ccp-Rev   Ccp-Rev   Ccp-Rev   Ccp-Rev   Ccp-Rev
(US/Central)
05/21 00:00      0.00     15.90      2.91      6176     12.83
05/21 01:00      0.00     17.44      2.91      6920     12.83
05/21 02:00      0.01     18.59      2.91      7477     12.83
05/21 03:00      0.00     19.44      5.54      7970     12.83
05/21 04:00      0.01     20.22      2.94      8499     12.89
05/21 05:00      0.31     20.89      6.50      8961     12.83
05/21 06:00      0.32     21.44      7.02      9345     12.89
05/21 07:00      0.45     22.21      6.54      9891     12.89
05/21 08:00      0.13     23.05      8.04     10774     12.83
05/21 09:00      0.07     23.76      8.59     11664     12.89
05/21 10:00      0.02     24.31      8.99     12457     12.89
05/21 11:00      0.00     24.61      9.09     12942     13.24
05/21 12:00      0.00     24.85      9.41     13339     13.24
05/21 13:00      0.00     25.07      9.50     13709     13.53
05/21 14:00      0.00     25.24      9.79     14171      ----
05/21 15:00      0.04     25.41      9.90     14700     13.65
05/21 16:00      0.00     25.55     10.24     15148     13.88
05/21 17:00      0.01     25.69     10.20     15606     13.53
05/21 18:00      0.00     25.82     10.29     16505     13.59
05/21 19:00      0.05     25.91     10.34     17366     13.83
05/21 20:00      0.01     25.98     10.43     18065     13.30
05/21 21:00      0.00     26.04     10.33     18684     13.18
05/21 22:00      0.00     26.06     10.39     18895     13.12
05/21 23:00      0.00     26.10     10.49     19323     13.12